TOURFACTS.DK  
Stats and Facts from Tour de France.

Tour de France 2019 starts in 320 days
  Riders   Stages   Teams   Summits   Yearly  


 
Search by year

After 2018 - Stage 21:
 15000 starters.
  5165 different riders.
  638 teams.
  2253 stages.
  456 restdays.
  442940.60 km.
  5684 abandonnees.


Top 3
GC
Geraint Thomas83:17:13
Tom Dumoulin83:19:04
Christopher Froome83:19:37
Climb
Julian Alaphilippe170 pt.
Warren Barguil91 pt.
Rafal Majka76 pt.
Sprint
Peter Sagan477 pt.
Alexander Kristoff246 pt.
Arnaud Démare203 pt.
Youth
Pierre-Roger Latou..83:39:26
Egan Bernal83:45:05
Guillaume Martin84:01:31
Facts from Tour de France 2017
  |   Stages.  |   Stage winners.  |   Days in yellow  |   Average speed.  |   Route.  |   Teams.  |   All riders.  |   Rookies.  |  

  |   Withdrawls.  |   GC.  |   Polka  |   Green  |   White  |   Summits. (In tour)  |   Miscellaneous.  |  

Stage 18 on 20 - 07 - 2017
         Owning:    Christopher Froome      Warren Barguil      Michael Matthews      Simon Yates  

Pick a stage:  1 2 3 4 5 6 7 8 9 10 11 12 13 14 15 16 17 18 19 20 21
  BriançonIzoard | Dist: 179.50 km.
Cat: 3Côte des Demoiselles CoifféesBELThomas De Gendt2 points 
Cat: 1Col de VarsKAZAlexey Lutsenko10 points 
Cat: HCol de l'IzoardFRAWarren Barguil40 points 

Average speed for all riders in stage:  36,058 km./hr.
    Place:Name:Team:Time:Km/h:
1
FRAWarren BarguilDEUTeam Sunweb04:40:33  +  00:00:00=38,389 
2
COLDarwin AtapumaUAEUAE Team Emirates04:40:53  +  00:00:20=38,343 
3
FRARomain BardetFRAAg2r La Mondiale04:40:53  +  00:00:20=38,343 
44 KENChristopher FroomeGBRSky Procycling04:40:53  +  00:00:20=38,343 
55 COLRigoberto UránUSACannondale-Drapac Pro Cycling ..04:40:55  +  00:00:22=38,339 
66 ESPMikel Landa MeanaGBRSky Procycling04:41:05  +  00:00:32=38,316 
77 RSALouis MeintjesUAEUAE Team Emirates04:41:10  +  00:00:37=38,305 
88 ENGDaniel MartinBELQuick-Step Floors04:41:12  +  00:00:39=38,300 
99 ENGSimon YatesAUSOrica - Scott04:41:32  +  00:00:59=38,255 
1010 ESPAlberto ContadorUSATrek - Segafredo04:41:42  +  00:01:09=38,232 
1111 COLNairo QuintanaESPMovistar Team04:41:51  +  00:01:18=38,212 
1212 COLCarlos Alberto BetancurESPMovistar Team04:41:55  +  00:01:22=38,203 
1313 ITAFabio AruKAZAstana Pro Team04:41:55  +  00:01:22=38,203 
1414 FRATony GallopinBELLotto Soudal04:42:10  +  00:01:37=38,169 
1515 FRABrice FeilluFRAFortuneo - Vital Concept04:42:27  +  00:01:54=38,131 
1616 ESPMikel NieveGBRSky Procycling04:42:48  +  00:02:15=38,083 
1717 KAZAlexey LutsenkoKAZAstana Pro Team04:43:27  +  00:02:54=37,996 
1818 USAAndrew TalanskyUSACannondale-Drapac Pro Cycling ..04:43:34  +  00:03:01=37,980 
1919 NEDBauke MollemaUSATrek - Segafredo04:43:34  +  00:03:01=37,980 
2020 BELSerge PauwelsZAFDimension Data04:43:37  +  00:03:04=37,974 
2121 FRAAlexis VuillermozFRAAg2r La Mondiale04:43:50  +  00:03:17=37,945 
2222 BELTiesj BenootBELLotto Soudal04:43:56  +  00:03:23=37,931 
2323 NEDMarco MinnaardBELWanty – Groupe Gobert04:44:07  +  00:03:34=37,907 
2424 KAZBakhtiyar KozhatayevKAZAstana Pro Team04:44:22  +  00:03:49=37,874 
2525 ESPDaniel NavarroFRACofidis – Solutions Crédits04:44:27  +  00:03:54=37,863 
2626 FRARomain HardyFRAFortuneo - Vital Concept04:44:27  +  00:03:54=37,863 
2727 ITADamiano CarusoUSABMC Racing Team04:44:31  +  00:03:58=37,854 
2828 CZERoman KreuzigerAUSOrica - Scott04:44:41  +  00:04:08=37,832 
2929 BELJan BakelantsFRAAg2r La Mondiale04:44:46  +  00:04:13=37,820 
3030 FRAAmaël MoinardUSABMC Racing Team04:44:48  +  00:04:15=37,816 
3131 GEREmanuel BuchmannDEUBora–Hansgrohe04:44:48  +  00:04:15=37,816 
3232 FRARudy MolardFRAFDJ04:45:13  +  00:04:40=37,761 
3333 FRANicolas RocheUSABMC Racing Team04:45:32  +  00:04:59=37,719 
3434 GERGianluca BrambillaBELQuick-Step Floors04:46:54  +  00:06:21=37,539 
3535 ARGEduardo SepulvedaFRAFortuneo - Vital Concept04:47:14  +  00:06:41=37,496 
3636 RSADaryl ImpeyAUSOrica - Scott04:47:14  +  00:06:41=37,496 
3737 HRVRobert KiserlovskiCHETeam Katusha - Alpecin04:47:14  +  00:06:41=37,496 
3838 SUIMathias FrankFRAAg2r La Mondiale04:47:14  +  00:06:41=37,496 
3939 FRAPierre RollandUSACannondale-Drapac Pro Cycling ..04:47:14  +  00:06:41=37,496 
4040 FRAGuillaume MartinBELWanty – Groupe Gobert04:47:53  +  00:07:20=37,411 
4141 BELThomas DegandBELWanty – Groupe Gobert04:48:14  +  00:07:41=37,366 
4242 COLSergio Luis HenaoGBRSky Procycling04:48:45  +  00:08:12=37,299 
4343 SLOJanez BrajkovicBHRBahrain-Merida04:49:03  +  00:08:30=37,260 
4444 ETHTsgabu Gebremaryan GrmayBHRBahrain-Merida04:49:03  +  00:08:30=37,260 
4545 NEDMaurits LammertinkCHETeam Katusha - Alpecin04:49:16  +  00:08:43=37,232 
4646 ITADiego UlissiUAEUAE Team Emirates04:49:21  +  00:08:48=37,221 
4747 GERSimon GeschkeDEUTeam Sunweb04:50:00  +  00:09:27=37,138 
4848 FRASylvain ChavanelFRADirect Energie04:51:07  +  00:10:34=36,995 
4949 FRAThomas VoecklerFRADirect Energie04:51:07  +  00:10:34=36,995 
5050 HRVKristijan DurasekUAEUAE Team Emirates04:51:19  +  00:10:46=36,970 
5151 FRARomain SicardFRADirect Energie04:51:30  +  00:10:57=36,947 
5252 KAZAndrey ZeitsKAZAstana Pro Team04:52:03  +  00:11:30=36,877 
5353 LUXBen GastauerFRAAg2r La Mondiale04:52:10  +  00:11:37=36,863 
5454 COLJarlinson Pantano GomezUSATrek - Segafredo04:52:34  +  00:12:01=36,812 
5555 DENMichael ValgrenKAZAstana Pro Team04:52:34  +  00:12:01=36,812 
5656 ESPHaimar ZubeldiaUSATrek - Segafredo04:52:34  +  00:12:01=36,812 
5757 NEDLaurens ten DamDEUTeam Sunweb04:52:40  +  00:12:07=36,800 
5858 BELThomas De GendtBELLotto Soudal04:53:21  +  00:12:48=36,714 
5959 NEDTimo RoosenNLDTeam Lotto NL - Jumbo04:53:33  +  00:13:00=36,689 
6060 FRACyril GautierFRAAg2r La Mondiale04:54:13  +  00:13:40=36,606 
6161 CZEZdenek StybarBELQuick-Step Floors04:54:14  +  00:13:41=36,604 
6262 POLMichal KwiatkowskiGBRSky Procycling04:54:14  +  00:13:41=36,604 
6363 SUIMichael SchärUSABMC Racing Team04:54:14  +  00:13:41=36,604 
6464 ESPLuis Angel MateFRACofidis – Solutions Crédits04:55:13  +  00:14:40=36,482 
6565 FRANicolas EdetFRACofidis – Solutions Crédits04:55:13  +  00:14:40=36,482 
6666 AUSDamien HowsonAUSOrica - Scott04:56:43  +  00:16:10=36,297 
6767 AUSSimon ClarkeUSACannondale-Drapac Pro Cycling ..04:56:43  +  00:16:10=36,297 
6868 GERTony MartinCHETeam Katusha - Alpecin04:57:12  +  00:16:39=36,238 
6969 BELJürgen RoelandtsBELLotto Soudal04:57:25  +  00:16:52=36,212 
7070 FRAAxel DomontFRAAg2r La Mondiale04:58:15  +  00:17:42=36,111 
7171 BELOliver NaesenFRAAg2r La Mondiale04:58:15  +  00:17:42=36,111 
7272 FRALaurent PichonFRAFortuneo - Vital Concept04:58:15  +  00:17:42=36,111 
7373 BELJens KeukeleireAUSOrica - Scott04:58:15  +  00:17:42=36,111 
7474 NEDKoen De KortUSATrek - Segafredo04:58:15  +  00:17:42=36,111 
7575 GERJasha SütterlinESPMovistar Team04:58:15  +  00:17:42=36,111 
7676 PORTiago PintoCHETeam Katusha - Alpecin04:58:15  +  00:17:42=36,111 
7777 DENLars BakBELLotto Soudal04:58:15  +  00:17:42=36,111 
7878 FRAAngelo TulikFRADirect Energie04:58:23  +  00:17:50=36,095 
7979 GERPaul MartensNLDTeam Lotto NL - Jumbo04:58:59  +  00:18:26=36,022 
8080 FRAElie GesbertFRAFortuneo - Vital Concept04:58:59  +  00:18:26=36,022 
8181 FRAMaxime BouetFRAFortuneo - Vital Concept04:58:59  +  00:18:26=36,022 
8282 SUIDanilo WyssUSABMC Racing Team04:59:17  +  00:18:44=35,986 
8383 BELGreg Van AvermaetUSABMC Racing Team04:59:17  +  00:18:44=35,986 
8484 FRAPierre-Luc PérichonFRAFortuneo - Vital Concept05:00:15  +  00:19:42=35,870 
8585 FRAFlorian VachonFRAFortuneo - Vital Concept05:00:15  +  00:19:42=35,870 
8686 KAZDmitriy GruzdevKAZAstana Pro Team05:00:36  +  00:20:03=35,828 
8787 ITAMatteo BonoUAEUAE Team Emirates05:02:52  +  00:22:19=35,560 
8888 COLJohan Esteban ChavesAUSOrica - Scott05:02:52  +  00:22:19=35,560 
8989 USANathan BrownUSACannondale-Drapac Pro Cycling ..05:03:16  +  00:22:43=35,513 
9090 BLRVasil KiryienkaGBRSky Procycling05:04:23  +  00:23:50=35,383 
9191 UKRAndriy GrivkoKAZAstana Pro Team05:04:23  +  00:23:50=35,383 
9292 NZLDion SmithBELWanty – Groupe Gobert05:04:23  +  00:23:50=35,383 
9393 NZLJack BauerBELQuick-Step Floors05:04:23  +  00:23:50=35,383 
9494 ENGBen SwiftUAEUAE Team Emirates05:04:23  +  00:23:50=35,383 
9595 ENGStephen CummingsZAFDimension Data05:04:23  +  00:23:50=35,383 
9696 ESPImanol ErvitiESPMovistar Team05:04:23  +  00:23:50=35,383 
9797 BELGuillaume Van KeirsbulckBELWanty – Groupe Gobert05:04:23  +  00:23:50=35,383 
9898 BELPieter VanspeybrouckBELWanty – Groupe Gobert05:04:23  +  00:23:50=35,383 
9999 CRCAndrey AmadorESPMovistar Team05:04:23  +  00:23:50=35,383 
100100 FRAPerrig QuemeneurFRADirect Energie05:04:23  +  00:23:50=35,383 
101101 FRAPierre-Roger LatourFRAAg2r La Mondiale05:04:23  +  00:23:50=35,383 
102102 FRALilian CalmejaneFRADirect Energie05:04:23  +  00:23:50=35,383 
103103 ESPJesus HerradaESPMovistar Team05:04:23  +  00:23:50=35,383 
104104 NEDDylan Van BaarleUSACannondale-Drapac Pro Cycling ..05:04:23  +  00:23:50=35,383 
105105 JPNYukiya ArashiroBHRBahrain-Merida05:04:23  +  00:23:50=35,383 
106106 BELDimitri ClaeysFRACofidis – Solutions Crédits05:04:52  +  00:24:19=35,327 
107107 GERNils PolittCHETeam Katusha - Alpecin05:04:52  +  00:24:19=35,327 
108108 ITAMarco MarcatoUAEUAE Team Emirates05:06:19  +  00:25:46=35,160 
109109 ESPJavier Moreno BazánBHRBahrain-Merida05:06:19  +  00:25:46=35,160 
110110 CZEOndrej CinkBHRBahrain-Merida05:06:19  +  00:25:46=35,160 
111111 ITASonny ColbrelliBHRBahrain-Merida05:06:21  +  00:25:48=35,156 
112112 ITAAlessandro De MarchiUSABMC Racing Team05:06:38  +  00:26:05=35,123 
113113 SUIStefan KüngUSABMC Racing Team05:06:59  +  00:26:26=35,083 
114114 SLOPrimoz RoglicNLDTeam Lotto NL - Jumbo05:06:59  +  00:26:26=35,083 
115115 ITAAlberto BettiolUSACannondale-Drapac Pro Cycling ..05:08:01  +  00:27:28=34,966 
116116 GERChristian KneesGBRSky Procycling05:09:06  +  00:28:33=34,843 
117117 NEDRamon SinkeldamDEUTeam Sunweb05:09:06  +  00:28:33=34,843 
118118 AUSMichael MatthewsDEUTeam Sunweb05:09:06  +  00:28:33=34,843 
119119 BELJulien VermoteBELQuick-Step Floors05:09:06  +  00:28:33=34,843 
120120 ITAFabio SabatiniBELQuick-Step Floors05:09:06  +  00:28:33=34,843 
121121 FRAYoann OffredoBELWanty – Groupe Gobert05:09:06  +  00:28:33=34,843 
122122 AUSJay McCarthyDEUBora–Hansgrohe05:09:06  +  00:28:33=34,843 
123123 WALLuke RoweGBRSky Procycling05:09:06  +  00:28:33=34,843 
124124 ENGScott ThwaitesZAFDimension Data05:09:06  +  00:28:33=34,843 
125125 NEDRoy CurversDEUTeam Sunweb05:09:06  +  00:28:33=34,843 
126126 SLOGrega BoleBHRBahrain-Merida05:09:06  +  00:28:33=34,843 
127127 BELFrederik BackaertBELWanty – Groupe Gobert05:09:06  +  00:28:33=34,843 
128128 AUSAdam HansenBELLotto Soudal05:09:06  +  00:28:33=34,843 
129129 SUIReto HollensteinCHETeam Katusha - Alpecin05:09:06  +  00:28:33=34,843 
130130 NZLPaddy BevinUSACannondale-Drapac Pro Cycling ..05:09:06  +  00:28:33=34,843 
131131 FRAOlivier Le GacFRAFDJ05:09:06  +  00:28:33=34,843 
132132 GERRobert WagnerNLDTeam Lotto NL - Jumbo05:09:06  +  00:28:33=34,843 
133133 ITAAndrea PasqualonBELWanty – Groupe Gobert05:09:06  +  00:28:33=34,843 
134134 GERAndré GreipelBELLotto Soudal05:09:06  +  00:28:33=34,843 
135135 RSAReinardt Janse Van RensburgZAFDimension Data05:09:06  +  00:28:33=34,843 
136136 FRAFlorian SénéchalFRACofidis – Solutions Crédits05:09:06  +  00:28:33=34,843 
137137 SUIMichael AlbasiniAUSOrica - Scott05:09:06  +  00:28:33=34,843 
138138 NOREdvald Boasson HagenZAFDimension Data05:09:06  +  00:28:33=34,843 
139139 POLPawel PoljanskiDEUBora–Hansgrohe05:09:06  +  00:28:33=34,843 
140140 DDRRüdiger SeligDEUBora–Hansgrohe05:09:06  +  00:28:33=34,843 
141141 POLMaciej BodnarDEUBora–Hansgrohe05:09:06  +  00:28:33=34,843 
142142 NORVegard Stake LaengenUAEUAE Team Emirates05:09:06  +  00:28:33=34,843 
143143 NEDDylan GroenewegenNLDTeam Lotto NL - Jumbo05:09:06  +  00:28:33=34,843 
144144 ESPJonathan CastroviejoESPMovistar Team05:09:06  +  00:28:33=34,843 
145145 NEDTom LeezerNLDTeam Lotto NL - Jumbo05:09:06  +  00:28:33=34,843 
146146 RSAJaco VenterZAFDimension Data05:09:06  +  00:28:33=34,843 
147147 AUSMathew HaymanAUSOrica - Scott05:09:06  +  00:28:33=34,843 
148148 USATaylor PhinneyUSACannondale-Drapac Pro Cycling ..05:09:06  +  00:28:33=34,843 
149149 ITADaniele BennatiESPMovistar Team05:09:06  +  00:28:33=34,843 
150150 NEDAlbert TimmerDEUTeam Sunweb05:09:06  +  00:28:33=34,843 
151151 NEDMike TeunissenDEUTeam Sunweb05:09:06  +  00:28:33=34,843 
152152 GERNikias ArndtDEUTeam Sunweb05:09:06  +  00:28:33=34,843 
153153 GERRick ZabelCHETeam Katusha - Alpecin05:09:06  +  00:28:33=34,843 
154154 SLOBorut BozicBHRBahrain-Merida05:09:06  +  00:28:33=34,843 
155155 FRAYohann GèneFRADirect Energie05:09:35  +  00:29:02=34,789 
156156 FRAThomas BoudatFRADirect Energie05:09:51  +  00:29:18=34,759 
157157 ESPMarkel IrizarUSATrek - Segafredo05:10:29  +  00:29:56=34,688 
158158 AUTBernhard EiselZAFDimension Data05:10:29  +  00:29:56=34,688 
159159 GERJohn DegenkolbUSATrek - Segafredo05:10:29  +  00:29:56=34,688 
160160 AUTMarco HallerCHETeam Katusha - Alpecin05:10:29  +  00:29:56=34,688 
161161 AUTMichael GoglUSATrek - Segafredo05:10:29  +  00:29:56=34,688 
162162 NORAlexander KristoffCHETeam Katusha - Alpecin05:10:29  +  00:29:56=34,688 
163163 FRAAdrien PetitFRADirect Energie05:10:29  +  00:29:56=34,688 
164164 GERMarcus BurghardtDEUBora–Hansgrohe05:11:16  +  00:30:43=34,601 
165165 ITADavide CimolaiFRAFDJ05:12:13  +  00:31:40=34,495 
166166 FRAJulien SimonFRACofidis – Solutions Crédits05:12:13  +  00:31:40=34,495 
167167 FRANacer BouhanniFRACofidis – Solutions Crédits05:12:13  +  00:31:40=34,495 
168168 FRACyril LemoineFRACofidis – Solutions Crédits05:12:13  +  00:31:40=34,495 
169169 FRAChristophe LaporteFRACofidis – Solutions Crédits05:12:30  +  00:31:57=34,464 

Todays birthdays.

1878  Jean Novo
1883  Jules Chabas
1890  Ange Aubry
1893  Roger Marye
1913  Paul Maye
1914  Lucien Vlaemynck
1915  Alphonse Antoine
1932  Rolf Graf
1953  Julio Rubiano
1959  Jos Haex
1959  Gerard Veldscholten
1963  Pablo Moreno
1964  Juan Castillo
1977  Iban Mayo
1994  Fernando Gaviria